Location: Newark
(59.4564°N, 26.6917°E)
Time: 15:25:40
(UTC+00:00)

SR - Pass Details

Date: 01 December 2019
Orbit: 573 x 882 km, 66.7° (Epoch: 07 December)

Event Time Altitude Azimuth Distance (km) Brightness Sun altitude
Rises 14:08:56 0° 279° (W) 3,414 ? -5.5°
Reaches altitude 10° 14:11:31 10° 287° (WNW) 2,508 ? -5.8°
Maximum altitude 14:17:04 42° 358° (N) 1,244 ? -6.4°
Drops below altitude 10° 14:22:43 10° 68° (ENE) 2,547 ? -7.0°
Enters shadow 14:23:16 - 70° (ENE) 2,738 ? -7.0°
Sets 14:25:21 0° 76° (ENE) 3,474 - -7.3°
